NOAA-15
1 25338U 98030A   06144.84591907  .00000023  00000-0  28294-4 0 05225
2 25338 098.5153 147.8474 0011686 082.4530 277.7991 14.24579750417393
RESURS
1 25394U 98043A   06144.74740005  .00000008  00000-0  21707-4 0 03846
2 25394 098.4906 208.4259 0000555 242.6691 117.4432 14.24101217409060
FENGYUN1
1 25730U 99025A   06144.59273338  .00000170  00000-0  11612-3 0  7357
2 25730 098.6241 138.0343 0013862 205.3241 154.7246 14.11812522362689
OKEAN-0
1 25860U 99039A   06144.64514167  .00000066  00000-0  17475-4 0 07561
2 25860 097.7334 160.0769 0001148 108.3204 251.8125 14.73364080368284
NOAA-16
1 26536U 00055A   06144.76716010 -.00000094  00000-0 -26140-4 0 08918
2 26536 099.0645 111.1119 0010299 181.7190 178.3965 14.12340536292270
NOAA-17
1 27453U 02032A   06144.69926378 -.00000010  00000-0  14511-4 0 09126
2 27453 098.6206 217.3664 0012542 140.5470 219.6622 14.23779072203430
NOAA-18
1 28654U 05018A   06144.73495311  .00000071  00000-0  63797-4 0 04929
2 28654 098.7866 088.5128 0013651 290.5465 069.4237 14.10961251052075
HUBBLE
1 20580U 90037B   06144.54277658  .00000410  00000-0  19133-4 0 06356
2 20580 028.4678 204.0237 0003498 292.6345 067.3872 15.00040004681546
UARS
1 21701U 91063B   06144.93681775  .00004347  00000-0  86002-4 0 07896
2 21701 056.9755 192.6491 0106334 162.0178 198.4694 15.43583911805716
PO-34
1 25520U 98064B   06144.59421903  .00000561  00000-0  18130-4 0 04735
2 25520 028.4592 188.9823 0005210 345.7510 014.2939 15.16713354418465
ISS
1 25544U 98067A   06145.87016829  .00014452  00000-0  96454-4 0  9973
2 25544 051.6348 302.3914 0008917 247.1268 272.7304 15.75602936429640
OO-38
1 26063U 00004C   06144.80858514 -.00000011  00000-0  16468-4 0 06275
2 26063 100.1887 071.6394 0036833 172.6526 187.5195 14.35765787331327
NO-45
1 26932U 01043D   06144.92693724  .00000033  00000-0  45114-4 0 03244
2 26932 067.0566 067.2923 0008863 264.8415 095.1673 14.29526145242646
UWE-1
1 28892U 05043C   06144.74780331  .00000265  00000-0  65727-4 0  4583
2 28892 098.1662 043.3399 0016381 243.6373 116.3157 14.59353071 30556
CO-58
1 28895U 05043F   06144.73982533  .00000090  00000-0  28738-4 0 04412
2 28895 098.1689 043.4049 0016879 243.8161 116.1328 14.59406434030437
NCUBE2
1 28897U 05043H   06144.65103878  .00000161  00000-0  43552-4 0 00733
2 28897 098.1662 043.3079 0016102 246.7978 113.1533 14.59561155022695
